Cedar City, UT

11:47 AM MDT on June 22, 2017 (GMT -0600)
Cedar City Regional

Weather History for KCDC - December, 2013

Change the Weather History Date:

Tuesday, December 31, 2013

  Actual Average Record
Temperature  
Mean Temperature 35 °F 28 °F  
Max Temperature 52 °F 41 °F 59 °F (1980)
Min Temperature 18 °F 16 °F -9 °F (1990)
Degree Days  
Heating Degree Days 30 37  
Month to date heating degree days 1327 1122  
Since 1 July heating degree days 2855 2562  
Cooling Degree Days 0 0  
Month to date cooling degree days 0 0  
Year to date cooling degree days 667 588  
Moisture  
Dew Point 21 °F    
Average Humidity 56    
Maximum Humidity 81    
Minimum Humidity 30    
Precipitation  
Precipitation 0.00 in 0.03 in 0.70 in (1950)
Month to date precipitation 0.91 0.84  
Year to date precipitation 14.98 11.31  
Sea Level Pressure  
Sea Level Pressure 30.24 in    
Wind  
Wind Speed 2 mph (SSE)    
Max Wind Speed 9 mph    
Max Gust Speed 10 mph    
Visibility 10 miles    
Events      
T = Trace of Precipitation, MM = Missing Value Source: NWS Daily Summary

Daily Weather History Graph

Daily Weather History Graph

Search for Another Location

Airport or City:

Trip Planner

Search our weather history database for the weather conditions in past years. The results will help you decide how hot, cold, wet, or windy it might be!

Date:

Astronomy

Dec. 31, 2013 Rise Set
Actual Time 7:47 AM MST 5:23 PM MST
Civil Twilight 7:18 AM MST 5:53 PM MST
Nautical Twilight 6:45 AM MST 6:25 PM MST
Astronomical Twilight 6:13 AM MST 6:57 PM MST
Moon 6:45 AM MST (12/31) 5:03 PM MST (12/31)
Length of Visible Light 10h 34m
Length of Day
9h 36m
Waning Crescent, 1% of the Moon is Illuminated
Dec 31
Waning Crescent
Jan 1
New
Jan 7
First Quarter
Jan 15
Full
Jan 23
Last Quarter

Hourly Weather History & Observations

Time (MST) Temp. Windchill Dew Point Humidity Pressure Visibility Wind Dir Wind Speed Gust Speed Precip Events Conditions
12:53 AM 21.0 °F - 14.0 °F 74% 30.32 in 10.0 mi Calm Calm - N/A   Clear
1:53 AM 21.0 °F 14.6 °F 15.1 °F 78% 30.32 in 10.0 mi East 4.6 mph - N/A   Clear
2:53 AM 23.0 °F - 16.0 °F 74% 30.30 in 10.0 mi Calm Calm - N/A   Clear
3:53 AM 23.0 °F 18.4 °F 16.0 °F 74% 30.29 in 10.0 mi South 3.5 mph - N/A   Clear
4:53 AM 19.9 °F 13.4 °F 15.1 °F 81% 30.28 in 10.0 mi SW 4.6 mph - N/A   Clear
5:53 AM 19.9 °F 13.4 °F 15.1 °F 81% 30.31 in 10.0 mi NNW 4.6 mph - N/A   Clear
6:53 AM 23.0 °F - 18.0 °F 81% 30.32 in 10.0 mi Calm Calm - N/A   Clear
7:53 AM 25.0 °F 18.1 °F 18.0 °F 75% 30.31 in 10.0 mi SSE 5.8 mph - N/A   Clear
8:53 AM 30.9 °F - 21.0 °F 67% 30.30 in 10.0 mi Calm Calm - N/A   Clear
9:53 AM 36.0 °F - 21.0 °F 55% 30.29 in 10.0 mi Calm Calm - N/A   Clear
10:53 AM 42.1 °F - 21.9 °F 45% 30.27 in 10.0 mi Calm Calm - N/A   Clear
11:53 AM 45.0 °F - 21.0 °F 39% 30.25 in 10.0 mi Calm Calm - N/A   Clear
12:53 PM 48.0 °F - 21.9 °F 36% 30.20 in 10.0 mi Calm Calm - N/A   Clear
1:53 PM 50.0 °F - 21.9 °F 33% 30.18 in 10.0 mi Calm Calm - N/A   Clear
2:53 PM 51.1 °F - 21.9 °F 32% 30.15 in 10.0 mi NW 3.5 mph - N/A   Clear
3:53 PM 50.0 °F - 24.1 °F 36% 30.15 in 10.0 mi SSW 3.5 mph - N/A   Mostly Cloudy
4:53 PM 43.0 °F 38.8 °F 26.1 °F 51% 30.19 in 10.0 mi ENE 6.9 mph - N/A   Mostly Cloudy
5:53 PM 39.0 °F - 26.1 °F 60% 30.21 in 10.0 mi Calm Calm - N/A   Overcast
6:53 PM 37.0 °F 32.4 °F 27.0 °F 67% 30.22 in 10.0 mi ESE 5.8 mph - N/A   Overcast
7:53 PM 37.0 °F 31.0 °F 26.1 °F 65% 30.21 in 10.0 mi SSE 8.1 mph - N/A   Overcast
8:53 PM 34.0 °F 31.0 °F 24.1 °F 67% 30.20 in 10.0 mi Variable 3.5 mph - N/A   Clear
9:53 PM 34.0 °F 26.6 °F 23.0 °F 64% 30.19 in 10.0 mi SSE 9.2 mph - N/A   Clear
10:53 PM 32.0 °F 27.5 °F 21.0 °F 64% 30.19 in 10.0 mi South 4.6 mph - N/A   Clear
11:53 PM 28.0 °F 22.8 °F 21.9 °F 78% 30.20 in 10.0 mi ENE 4.6 mph - N/A   Clear